Location: Gourdan-Polignan
(43.0709°N, 0.5748°E)
Time: 05:06:22
(UTC+00:00)

Cosmos 1437 Rocket - Pass Details

Date: 15 May 2026
Orbit: 439 x 476 km, 81.2° (Epoch: 6 June)

Event Time Altitude Azimuth Distance (km) Brightness Sun altitude
Exits shadow 20:02:32 11° 123° (ESE) 1,548 4.4 -8.3°
Maximum altitude 20:04:25 16° 89° (E) 1,323 4.3 -8.6°
Drops below altitude 10° 20:06:36 10° 51° (NE) 1,640 5.1 -8.9°
Sets 20:09:20 0° 29° (NNE) 2,531 6.3 -9.3°
